Zurück zum Katalog

STARLINK-31936

AktivKommunikationVLEO
NORAD 59875·PAYLOAD·🇺🇸 United States

Gestartet May 24, 2024 von Cape Canaveral Space Force Station

Loading…

Nächste Überflüge (nächste 24 Stunden)

TLE

AktuellSource: CelesTrak SupGP

Epoche: Sep 14, 2026, 14:48 UTC

1 59875C 24098T   26257.61715278 -.00020218  00000+0 -73240-3 0  2576
2 59875  42.9992 258.7016 0001209 280.0593 338.1720 15.27584755    13

Verfolge STARLINK-31936 in Echtzeit mit AllMySat

Download on the App Store